GFSSGP_sfc_temp_057.txt.gz
Temp
69 71 70 69 56 49 43 52 59 63 68 70 74 73 75 79 76 68 79 84 78 78 76 78 79 79 79 79 78 78 78 78 78 78 78 78 78 78 78 78 78 79 79 79 80 79 79 79 79
70 74 69 61 50 41 46 55 57 64 71 75 76 76 73 74 83 77 78 80 81 78 76 77 79 79 79 79 78 78 78 78 78 78 78 78 78 78 78 78 78 79 79 79 79 79 79 79 78
74 75 63 55 46 45 49 56 60 70 73 73 73 80 79 78 80 81 81 81 81 77 77 77 78 78 79 78 78 78 78 78 78 78 78 78 78 77 77 78 78 79 80 80 80 79 79 78 78
75 67 61 51 50 55 58 59 65 70 76 75 75 75 82 84 81 84 82 81 79 76 77 78 78 78 78 78 78 78 78 78 78 78 78 78 78 77 77 77 78 79 79 80 80 79 78 78 78
71 65 51 46 52 59 64 65 68 68 70 74 75 74 78 84 81 80 80 82 78 75 76 78 78 78 78 79 78 78 78 78 78 78 78 78 77 77 77 77 78 78 79 79 79 78 78 77 77
62 59 47 50 59 64 66 67 67 67 71 74 74 76 77 80 78 80 81 81 81 76 75 77 78 78 78 78 78 77 77 77 77 78 78 77 77 77 77 77 77 78 78 78 78 78 77 76 76
61 54 48 50 58 61 66 71 68 68 69 72 78 73 78 77 80 79 78 78 79 77 75 75 76 77 78 78 77 77 77 77 77 77 77 77 77 76 76 77 77 77 77 77 77 77 76 76 75
64 59 51 54 58 58 68 69 70 70 72 81 81 72 73 79 81 78 75 72 71 72 74 73 73 74 73 74 77 77 77 77 77 77 76 76 76 76 76 75 76 77 77 77 77 77 76 76 75
68 51 48 55 59 61 69 66 73 78 75 76 80 78 83 81 82 76 73 70 69 72 69 69 70 69 69 70 75 76 77 77 76 77 76 75 73 73 73 74 75 77 77 77 76 76 76 75 75
60 48 54 64 66 64 68 67 71 72 71 73 74 80 84 84 82 77 75 75 73 72 69 71 71 70 69 75 71 71 73 73 73 74 74 73 70 69 71 73 76 76 76 76 76 76 76 76 68
57 53 62 65 67 68 68 69 73 70 67 69 70 75 81 81 78 81 79 75 72 74 74 71 72 71 71 73 69 69 69 69 69 69 69 70 68 68 69 67 69 68 74 69 72 71 70 68 67
51 61 62 64 69 68 66 71 69 71 72 78 77 77 77 78 77 79 81 78 76 75 73 72 71 70 70 72 70 71 70 68 68 69 68 67 66 65 66 66 65 66 65 66 65 66 67 67 67
52 58 63 65 65 66 69 67 68 70 76 80 81 80 76 76 76 75 77 76 76 73 74 72 72 70 71 67 68 69 67 69 69 68 67 68 66 65 65 64 64 64 64 64 64 65 66 66 67
55 55 59 61 63 64 64 67 68 72 77 77 78 77 76 77 76 72 72 73 73 77 75 73 72 71 69 71 68 69 68 69 68 68 67 68 68 66 64 63 64 63 65 65 65 65 65 65 66
54 50 55 59 62 62 67 60 63 73 75 74 75 77 77 77 78 75 74 73 72 75 78 75 76 75 73 71 75 76 75 72 70 71 68 68 68 65 65 65 64 65 66 64 64 63 63 63 64
47 45 39 53 60 63 62 53 64 68 68 68 72 75 77 75 78 77 75 73 72 72 73 75 80 78 75 76 77 78 76 75 74 72 71 70 69 67 66 66 66 65 64 65 64 62 61 62 62
42 36 39 49 58 59 56 49 60 65 65 64 65 67 71 73 74 75 75 74 73 73 73 73 76 77 77 78 77 77 75 74 75 74 72 71 70 69 68 68 67 65 65 65 65 62 64 61 61
38 38 43 43 53 55 53 53 57 62 62 63 64 66 67 69 72 74 75 75 74 75 74 73 73 72 75 76 74 73 72 73 75 74 73 72 71 70 68 68 65 66 65 64 63 63 63 62 64
46 43 42 48 54 49 48 50 55 58 58 58 60 62 64 66 71 74 75 76 73 70 69 72 73 73 71 69 70 71 70 72 73 74 74 71 71 71 68 68 66 66 66 66 65 63 62 61 62
46 41 40 47 53 50 48 49 54 56 57 57 59 59 61 64 68 71 73 73 73 69 69 71 74 77 75 79 79 76 78 79 78 73 70 71 72 71 69 68 66 66 66 64 64 64 61 62 62
43 41 41 42 48 49 46 46 50 53 55 59 60 60 61 61 63 67 70 70 70 69 66 69 72 75 77 78 69 66 67 67 68 69 68 70 71 71 71 68 67 67 69 65 65 66 67 64 63
39 48 47 46 40 32 46 31 42 50 51 53 56 57 58 59 61 62 65 66 69 71 69 67 71 73 76 77 72 71 78 75 68 67 74 69 68 69 69 69 69 68 69 66 66 67 66 65 62
44 49 45 44 38 33 37 30 39 51 48 51 55 54 53 55 56 57 59 62 65 68 69 68 68 70 74 75 78 77 77 74 66 64 65 65 66 68 70 69 69 68 67 67 66 65 67 65 63
51 44 41 37 33 24 35 34 33 39 44 49 50 54 55 55 56 57 59 60 60 62 65 64 63 66 71 72 73 76 77 70 64 62 63 63 64 66 69 69 68 68 67 67 66 66 65 65 65
43 33 24 23 23 25 37 34 38 47 52 50 51 53 54 55 53 53 56 58 59 60 63 66 63 64 67 70 72 72 75 73 71 69 66 63 64 65 67 67 67 67 67 67 66 66 66 65 64
39 35 24 19 23 28 39 28 37 49 52 52 53 53 54 54 52 52 55 56 58 60 62 64 65 67 64 68 71 73 74 73 70 67 64 65 65 66 67 68 67 68 68 67 66 66 66 65 64
37 32 38 29 28 21 30 37 45 51 49 51 50 52 51 52 53 54 55 56 57 58 60 63 64 67 69 69 71 66 67 66 65 64 65 66 66 66 67 68 67 67 67 67 67 65 64 65 64
42 44 27 26 21 20 28 30 33 43 47 49 49 50 51 53 53 56 56 57 58 56 60 64 62 66 70 69 69 68 66 64 63 65 65 66 65 67 67 67 66 66 67 67 66 64 65 64 61
36 32 32 29 26 18 18 28 41 42 46 46 49 51 50 51 53 54 56 57 56 56 59 62 63 60 63 64 63 63 62 63 65 66 66 66 66 67 67 67 66 66 66 67 65 63 63 62 61
41 36 33 21 21 29 25 29 49 51 50 48 48 53 52 53 53 54 56 56 57 56 58 61 63 61 63 66 63 63 63 65 65 65 66 66 66 67 68 67 67 68 67 65 64 63 63 62 60

GFSSGP_sfc_temp_060.txt.gz
Temp
70 71 68 68 57 49 42 50 54 60 65 68 70 69 71 74 72 64 76 81 78 76 76 78 79 79 79 79 78 78 78 78 78 79 78 78 78 78 78 78 78 79 79 80 80 80 80 79 79
70 74 70 60 50 42 45 52 54 61 68 72 72 70 69 71 82 81 74 79 81 78 76 77 79 79 79 79 78 78 78 78 78 78 78 78 78 78 78 78 78 79 80 80 80 80 79 79 79
74 73 63 55 45 45 48 55 58 65 70 68 68 76 74 74 79 81 79 79 79 77 77 76 79 79 79 79 78 78 78 78 78 78 78 78 78 78 78 78 78 79 80 80 80 79 79 79 78
72 68 63 51 50 54 57 59 61 64 70 71 71 70 78 83 81 81 79 79 79 77 76 77 79 79 79 79 78 78 78 78 78 78 78 78 78 77 77 77 78 79 80 80 80 79 79 78 78
70 61 50 45 51 58 63 64 65 63 65 69 70 71 72 79 79 78 79 80 79 75 75 77 78 78 79 79 78 78 78 77 77 78 78 78 77 77 77 77 78 79 79 79 79 78 78 77 77
61 58 46 45 59 62 65 68 64 63 66 70 70 71 72 77 77 76 78 77 79 76 74 76 78 78 78 78 78 78 77 77 77 77 77 77 77 77 77 77 77 78 78 79 79 78 77 76 76
58 54 46 49 57 60 65 69 64 63 65 69 74 68 73 79 76 76 75 74 74 74 72 73 76 77 78 78 77 77 77 77 77 77 77 77 77 76 77 77 77 77 77 77 78 77 76 76 75
60 57 47 51 57 57 67 68 68 67 69 77 77 67 69 73 76 74 71 69 70 70 71 70 71 75 75 75 77 77 77 77 77 77 77 76 76 76 76 75 76 77 77 77 77 77 76 75 75
63 50 47 54 58 60 69 65 69 75 72 72 75 73 77 78 77 75 74 70 68 70 67 68 69 70 71 72 75 77 77 77 77 77 77 75 74 74 75 75 76 77 77 77 76 76 75 75 75
56 45 53 63 65 63 68 65 68 69 69 68 70 76 79 81 75 73 74 72 70 69 69 67 68 68 69 74 73 73 73 75 75 75 74 74 74 72 72 74 75 76 76 76 76 76 76 76 72
50 47 58 64 66 66 65 66 71 67 65 68 68 72 76 75 74 74 75 75 72 73 72 70 69 68 70 72 68 70 71 72 72 71 72 74 72 71 72 70 72 71 75 71 74 73 73 71 70
47 55 61 63 68 65 65 69 67 69 69 74 73 74 74 75 72 72 75 75 74 74 74 72 70 68 68 68 70 70 70 69 69 69 69 69 68 67 67 68 68 68 68 68 68 68 69 70 69
48 52 57 62 64 64 66 65 66 67 73 76 76 75 73 73 74 73 74 73 75 77 76 75 71 68 68 67 68 67 68 68 68 68 68 68 66 65 66 66 66 66 66 66 66 67 68 68 69
51 52 54 58 62 64 63 65 67 70 74 74 74 73 73 72 73 72 75 72 70 76 76 76 73 70 68 69 67 69 68 68 68 67 68 68 67 65 65 64 65 65 66 66 66 66 67 67 68
51 46 51 55 60 61 64 58 61 69 71 70 70 71 72 72 73 72 73 72 71 73 75 72 73 71 70 69 68 68 70 70 69 70 68 69 68 66 66 65 65 66 65 66 66 66 66 66 67
44 43 38 49 54 60 61 51 61 65 66 65 68 68 68 68 70 71 72 69 70 69 72 73 77 73 70 72 71 68 71 72 73 73 71 70 69 67 66 66 66 66 66 66 66 65 64 65 65
40 34 37 47 53 54 52 48 59 63 63 63 64 65 67 67 68 70 72 71 70 69 69 71 73 73 72 71 67 67 69 68 69 70 69 70 70 69 68 67 67 65 65 65 66 64 66 63 64
36 36 40 41 49 50 47 48 55 59 60 60 62 64 65 66 68 70 71 72 70 69 68 68 70 72 72 73 70 68 68 69 70 72 69 70 70 69 68 67 66 66 65 64 64 64 65 65 65
43 40 40 45 50 47 46 47 51 57 57 56 58 60 62 64 69 70 71 71 69 68 66 67 67 67 67 67 69 68 71 73 72 72 73 72 71 70 68 68 67 66 66 66 65 65 64 63 64
43 39 38 44 50 46 46 46 52 54 55 57 57 58 59 60 64 68 68 68 66 65 64 64 65 67 66 71 73 73 74 73 75 75 73 72 71 71 69 68 67 66 66 65 65 64 63 63 64
41 39 39 40 45 45 43 40 44 52 54 56 58 57 58 58 58 60 64 64 64 64 63 64 64 65 66 69 69 67 67 67 68 68 70 71 72 71 70 69 68 66 67 65 65 65 65 63 63
37 47 46 43 38 30 43 27 38 45 47 51 54 54 55 56 56 57 59 59 61 63 63 63 62 63 67 66 69 70 75 75 80 79 73 70 71 71 71 69 69 67 68 66 66 67 66 65 63
43 47 43 42 36 31 34 27 34 43 42 45 50 53 54 55 55 56 57 58 61 61 59 60 61 61 64 65 68 72 72 77 78 67 69 68 67 69 70 70 68 68 67 68 66 66 67 67 64
48 42 39 34 31 24 32 31 29 37 43 46 50 53 54 54 55 56 57 58 57 58 57 57 57 58 61 64 66 70 72 73 65 64 66 65 64 66 68 69 69 68 67 67 67 67 67 66 66
41 32 24 23 23 24 35 31 35 44 49 50 50 52 54 53 52 52 53 56 58 59 57 58 59 59 60 61 65 68 72 73 69 71 70 64 63 65 67 68 67 68 68 68 68 67 67 65 66
36 34 23 19 21 23 36 28 34 46 50 52 52 51 52 53 52 51 53 54 57 59 58 57 57 57 59 60 64 68 70 74 72 71 69 68 67 66 67 68 68 68 69 69 68 67 67 66 66
35 31 35 28 24 19 27 34 43 49 48 49 50 51 50 52 52 52 54 53 55 56 57 57 56 58 60 60 63 65 68 69 69 65 66 65 66 67 67 68 68 68 69 69 67 67 67 66 65
40 42 27 24 19 19 26 29 32 41 46 46 47 47 52 54 51 54 55 55 58 57 57 56 57 59 61 60 63 66 66 67 67 63 64 66 66 68 67 68 68 68 69 68 67 67 66 65 65
35 31 31 28 23 17 17 28 39 40 43 43 45 50 53 54 52 51 54 56 57 57 57 57 58 59 60 60 61 64 64 64 64 65 65 66 66 67 68 68 68 68 68 67 67 67 65 65 64
39 35 32 21 21 29 26 29 46 48 44 45 47 50 51 53 51 51 52 54 56 58 59 59 59 60 61 63 59 61 62 63 64 65 66 66 67 68 68 69 68 69 68 67 67 65 65 65 63

GFSSGP_sfc_temp_063.txt.gz
Temp
78 80 82 83 73 71 65 67 70 73 76 83 84 82 83 87 83 80 89 89 92 88 86 83 79 79 80 80 79 79 78 78 79 79 79 79 79 79 78 78 79 79 80 80 80 80 80 80 80
80 81 83 76 68 63 67 68 70 76 80 84 84 82 81 81 91 96 92 90 91 88 85 85 79 79 79 79 79 79 78 78 78 78 78 78 78 78 78 78 79 80 80 80 80 80 80 80 79
80 80 78 73 66 62 67 69 74 77 82 78 81 86 83 83 90 94 93 90 90 87 87 85 79 79 79 79 79 78 78 78 78 78 78 78 78 78 78 78 79 80 80 80 80 80 79 79 79
80 80 74 65 64 62 67 73 74 76 82 81 83 80 88 89 88 91 91 91 89 90 89 82 79 79 79 79 79 78 78 78 78 79 78 78 78 78 77 78 78 79 80 80 80 79 79 79 78
80 75 66 62 63 64 68 75 78 77 78 80 81 79 82 91 90 87 89 90 90 89 90 86 78 79 79 79 79 78 78 78 78 78 78 78 78 77 77 78 78 79 80 80 79 78 78 78 77
74 73 61 59 64 67 71 77 78 77 79 81 82 80 83 90 85 85 88 89 92 88 87 87 80 78 78 79 78 78 78 78 78 78 78 78 78 77 77 77 78 78 79 79 79 78 77 77 76
70 67 64 62 62 65 70 76 75 75 78 78 84 77 83 88 84 84 85 87 89 88 87 85 85 82 78 78 78 78 77 77 77 77 77 77 77 77 77 77 77 78 78 78 78 77 77 76 76
73 70 62 64 62 63 73 73 77 76 76 85 85 76 78 86 84 85 86 84 87 86 88 86 85 86 85 84 78 77 77 77 77 77 77 77 77 77 77 76 77 77 77 77 77 77 76 76 76
74 64 60 63 63 67 73 71 79 82 78 80 83 83 86 90 85 86 84 85 85 83 84 87 87 86 85 86 83 78 78 77 77 78 77 76 85 83 82 80 77 77 77 77 77 76 76 76 76
69 63 64 70 71 70 72 71 73 73 76 77 79 84 87 90 88 84 84 85 83 84 82 85 84 83 83 85 84 83 83 83 83 84 83 84 84 83 84 81 76 77 77 77 76 76 76 77 85
67 62 67 70 73 74 73 70 74 71 69 77 75 80 85 87 87 84 84 87 87 85 84 81 80 80 82 84 85 84 85 83 83 82 81 82 81 79 82 83 83 82 78 84 81 82 83 83 84
61 65 68 71 73 72 71 72 70 72 73 78 80 83 83 85 85 86 84 86 85 84 85 83 79 77 78 84 82 82 84 84 83 82 79 80 77 76 81 82 83 81 83 82 81 83 81 81 81
62 64 67 70 71 71 72 69 69 71 76 79 81 82 82 84 86 87 85 81 81 84 85 83 80 77 77 76 81 82 82 83 83 82 81 81 80 79 81 81 82 82 83 82 81 80 80 80 80
63 64 65 68 70 69 68 70 70 72 76 76 77 78 81 81 82 84 84 83 81 80 85 86 81 79 80 78 77 80 80 82 81 81 81 78 80 79 80 80 81 81 82 83 82 80 79 79 80
63 59 63 65 68 67 69 64 66 69 73 71 75 77 78 80 82 82 82 80 80 78 80 82 81 81 76 75 78 76 77 80 80 80 79 78 76 77 77 78 80 81 80 79 79 78 77 78 79
58 57 55 62 63 67 67 59 65 69 69 68 71 74 76 78 79 82 82 80 80 79 78 80 84 83 78 77 78 78 80 79 80 80 79 75 75 75 75 74 78 80 79 78 77 77 77 77 78
54 51 51 55 62 62 62 58 64 68 66 65 67 71 74 76 79 80 81 81 80 78 77 77 79 82 78 77 80 76 77 78 80 80 79 75 78 74 73 76 77 75 78 74 78 77 77 76 77
48 49 51 52 58 60 59 58 64 66 65 64 65 67 71 73 76 78 79 79 78 78 76 77 78 78 79 76 78 80 77 79 76 77 76 75 77 72 73 78 75 74 78 78 77 74 76 77 79
53 51 50 55 58 57 57 58 61 65 65 64 64 64 66 68 76 77 77 77 77 77 75 74 76 77 79 79 79 79 77 79 79 79 78 78 77 74 72 73 72 73 77 77 75 75 73 76 76
52 50 50 54 58 56 56 55 61 64 64 66 66 64 64 66 68 71 74 74 73 72 73 73 74 75 77 79 80 83 83 84 84 84 81 80 79 77 74 71 76 74 77 75 74 73 75 76 76
51 50 49 49 53 56 53 54 55 62 64 65 67 66 65 64 65 67 68 69 70 70 70 71 71 72 74 77 79 80 81 80 82 82 81 79 79 79 77 77 78 76 77 78 74 74 74 76 74
48 55 52 50 48 44 52 42 51 57 58 62 64 65 67 67 66 65 66 67 68 70 71 70 70 69 74 74 76 75 79 80 83 84 83 81 79 79 80 79 78 76 78 78 76 76 76 76 74
51 55 51 50 49 45 48 43 50 54 55 59 62 64 67 67 66 66 67 68 69 70 70 68 68 69 70 71 72 76 75 81 84 85 82 77 76 79 81 80 78 77 78 77 76 74 73 77 78
55 52 49 47 46 39 44 43 46 52 56 58 64 65 67 68 68 69 69 69 69 71 71 69 67 67 70 70 71 71 73 75 79 80 80 80 78 79 79 80 78 77 77 76 76 75 74 75 74
53 48 40 37 38 39 44 42 47 55 59 60 61 64 67 67 68 68 68 69 68 69 69 69 69 67 69 69 69 70 71 73 74 76 78 76 73 76 76 77 76 77 76 77 76 75 75 74 74
49 48 40 28 33 39 45 39 49 57 61 62 63 63 64 66 67 66 67 67 69 69 68 68 67 67 69 69 70 71 72 75 77 77 78 76 76 80 79 77 77 77 78 77 76 76 76 75 74
45 43 48 40 38 35 42 47 53 58 58 60 60 61 62 64 65 66 66 67 67 68 68 67 66 67 69 69 70 69 71 73 77 77 77 79 78 82 78 78 77 78 78 77 75 77 75 75 73
50 52 39 41 29 28 39 41 44 51 55 58 58 60 61 63 64 66 66 66 67 68 68 69 68 68 69 69 70 71 72 74 75 77 76 77 78 79 78 78 78 77 77 76 76 77 77 75 74
46 44 42 41 38 31 31 41 52 53 56 55 58 60 60 62 63 65 66 67 68 69 70 69 70 69 69 70 70 70 71 74 75 76 76 77 78 78 79 79 79 78 77 77 76 76 76 74 70
49 46 46 34 32 37 35 38 57 57 57 56 58 61 62 62 63 65 66 66 67 68 68 69 69 69 70 70 70 70 71 73 73 74 76 77 77 79 80 80 80 79 78 77 77 76 76 73 69

GFSSGP_sfc_temp_069.txt.gz
Temp
85 100 103 98 82 84 80 85 94 88 89 98 100 96 95 99 94 86 108 109 110 104 94 88 80 80 80 80 80 80 80 79 80 80 80 79 79 79 79 79 80 80 81 81 81 81 81 81 80
93 98 98 92 78 76 80 92 86 92 95 96 97 97 95 93 102 101 105 106 109 103 94 93 80 80 80 80 80 79 80 79 79 80 80 79 79 79 79 79 80 80 81 81 81 81 81 81 80
93 96 87 84 79 75 80 88 89 94 94 94 93 98 96 93 98 99 105 106 106 103 97 93 80 79 80 80 79 79 79 79 79 80 80 79 79 79 79 79 80 80 81 81 81 81 80 80 80
95 94 88 75 75 82 84 89 91 90 93 95 95 89 98 101 98 102 104 105 106 106 101 85 79 79 79 79 79 79 79 79 79 79 79 79 79 79 78 79 79 80 81 81 81 80 80 80 79
95 89 77 74 75 84 86 89 91 88 91 92 95 90 92 99 103 103 102 104 105 107 104 91 79 79 79 79 79 79 79 79 79 79 79 79 79 78 78 79 79 80 80 81 80 80 79 79 79
85 88 73 71 75 82 85 90 89 89 93 94 91 92 94 103 102 102 102 104 108 107 103 93 81 79 79 79 79 78 78 78 78 79 79 79 78 78 78 78 79 79 80 80 80 79 78 78 78
80 80 74 76 77 80 83 90 85 88 89 91 97 87 96 99 102 104 102 102 106 108 104 94 90 84 79 79 78 78 78 78 78 78 78 78 78 78 78 78 78 79 79 79 79 78 78 78 77
86 82 74 78 76 78 88 86 87 85 85 98 95 87 89 96 102 106 105 102 105 107 105 97 91 92 89 88 78 78 78 78 78 78 78 77 78 78 78 77 77 78 78 78 78 78 77 77 77
92 75 71 75 77 80 90 85 88 90 86 91 95 94 96 99 103 104 102 99 103 106 104 101 97 94 93 93 87 78 78 78 78 79 78 77 88 86 85 82 79 78 78 78 78 78 77 77 77
82 74 75 84 86 85 89 89 87 82 81 83 88 96 98 98 99 99 99 98 97 101 103 103 98 95 95 98 92 88 89 88 88 88 86 87 89 91 91 87 79 78 78 78 78 77 77 78 88
82 74 82 85 88 90 88 88 91 85 79 82 82 90 94 95 96 96 99 98 97 98 101 102 97 95 96 98 97 92 93 91 90 89 89 88 92 92 93 93 88 85 80 86 83 83 84 86 89
77 82 84 85 88 88 85 89 86 86 86 90 86 90 91 91 93 95 96 98 96 96 98 99 98 94 93 99 98 96 95 94 93 91 89 89 89 91 92 93 94 89 91 87 89 90 88 87 88
78 81 84 86 86 86 87 84 84 86 91 92 91 87 88 89 90 94 97 98 96 92 93 98 94 91 91 90 98 97 95 96 94 94 91 90 91 90 92 91 93 95 94 94 91 92 91 90 89
81 81 81 83 84 83 81 82 84 86 91 90 88 87 89 89 89 90 91 94 92 91 89 90 92 90 85 87 87 92 92 96 95 95 94 89 91 89 91 89 92 93 95 96 95 93 91 90 89
79 73 76 78 81 79 82 75 77 86 89 87 87 87 89 91 90 88 89 89 89 91 88 86 89 87 85 86 87 88 91 92 94 94 92 90 88 89 87 90 91 93 92 92 91 90 89 87 88
71 72 66 77 79 80 78 66 80 87 85 84 85 87 88 89 91 90 90 88 87 87 84 84 83 90 84 83 84 85 91 92 91 94 93 89 89 87 86 89 91 92 91 91 89 89 89 86 86
70 62 66 71 81 79 76 69 80 86 82 81 82 84 85 87 89 89 90 89 86 85 84 83 83 85 87 82 84 86 86 88 92 94 95 92 89 88 86 89 91 88 89 85 85 85 86 81 85
64 66 68 66 75 74 71 72 78 83 80 79 80 81 82 85 87 88 89 87 85 83 83 83 83 81 81 85 83 87 84 88 89 88 92 90 89 85 86 85 85 85 84 82 82 79 84 85 87
68 65 64 70 75 70 69 70 75 80 80 78 79 80 80 81 85 89 88 85 83 82 81 81 82 80 78 79 78 81 81 82 81 84 85 87 86 87 84 86 86 81 83 83 76 75 80 85 87
66 63 63 69 74 70 67 67 74 78 78 79 79 80 80 81 82 83 85 84 81 80 77 77 79 81 80 76 79 80 84 87 88 85 83 85 87 87 87 84 85 82 86 79 80 79 85 87 87
64 62 63 63 70 71 66 62 67 74 78 79 81 82 83 81 79 79 81 81 81 80 78 78 78 78 80 81 78 78 80 80 84 84 84 82 85 87 85 85 83 84 85 83 79 82 82 86 87
59 69 67 63 60 54 69 53 66 71 72 74 77 79 79 79 80 78 77 79 80 80 82 80 76 76 75 81 81 80 78 77 82 82 86 82 83 85 83 81 83 83 87 82 86 86 85 82 85
62 69 65 63 60 59 60 56 62 71 68 71 74 76 78 79 79 79 78 78 80 80 80 81 79 78 76 76 75 79 79 84 85 87 84 82 78 82 82 74 75 80 85 85 85 83 80 86 84
68 65 63 62 59 49 57 57 58 66 68 71 74 76 77 78 80 80 81 81 78 82 79 78 77 78 78 78 77 76 75 77 80 83 85 86 89 89 85 84 79 78 84 84 86 85 83 82 84
64 55 44 44 47 47 62 58 61 68 71 74 73 75 77 79 79 80 80 81 81 79 81 80 79 76 77 77 78 78 76 75 75 77 82 83 89 92 87 84 83 86 84 85 85 84 84 82 81
59 56 45 33 39 47 57 51 62 72 74 75 75 76 76 76 79 78 79 80 80 80 80 80 79 77 78 77 78 78 78 79 81 81 82 85 88 90 88 86 85 86 87 85 85 86 84 82 81
58 52 60 48 51 46 53 59 67 69 69 71 72 73 73 74 75 77 80 80 80 79 79 78 78 79 80 79 78 78 78 78 77 78 79 83 83 87 84 89 86 85 86 86 84 85 82 82 81
61 63 47 51 38 36 47 52 52 62 65 68 69 70 72 74 75 77 79 79 80 80 79 79 80 78 79 80 80 80 80 80 80 79 78 79 81 83 86 87 84 84 86 86 83 83 82 80 82
56 54 54 53 41 37 38 47 63 62 67 67 69 71 72 73 75 77 79 80 81 81 81 80 80 79 79 79 80 79 80 80 80 79 80 80 81 81 83 85 86 84 84 84 82 81 83 81 81
59 43 46 36 40 47 47 48 66 65 69 69 69 71 74 75 76 77 78 78 79 79 80 79 79 80 80 80 79 78 79 79 78 78 79 81 80 83 83 85 85 87 86 84 81 81 85 83 81

GFSSGP_sfc_temp_072.txt.gz
Temp
82 96 101 95 78 79 74 80 91 91 91 98 99 96 94 96 90 78 102 107 98 91 86 83 80 80 80 80 80 79 79 79 79 79 79 79 79 79 79 79 80 80 80 80 80 80 80 80 80
87 93 94 87 73 69 75 87 87 92 93 97 97 96 94 90 98 98 98 104 98 92 85 86 79 79 80 80 80 79 79 79 79 79 79 79 79 79 79 79 80 80 80 81 81 81 80 80 80
86 95 82 79 74 69 74 87 88 92 95 94 93 99 96 89 96 97 102 103 97 93 89 85 79 79 80 80 79 79 79 79 79 79 79 79 79 79 79 79 80 80 81 81 81 80 80 80 80
92 91 86 71 70 79 81 87 90 91 93 95 96 89 98 100 97 100 103 104 104 97 93 81 79 79 79 79 79 79 79 79 79 79 79 79 79 78 78 79 79 80 80 81 80 80 79 79 79
92 86 73 71 73 78 85 90 90 87 91 92 94 89 91 99 102 103 102 103 102 101 96 83 79 79 79 79 79 79 79 79 79 79 79 79 78 78 78 78 79 80 80 80 80 79 79 79 78
79 83 68 66 73 81 85 89 88 88 90 93 92 91 93 102 100 102 103 101 106 102 93 86 80 79 78 79 79 78 78 78 79 79 79 78 78 78 78 78 78 79 79 80 80 79 78 78 78
76 73 69 71 73 78 84 91 85 85 87 88 95 87 94 96 100 103 103 102 103 104 92 86 84 81 78 78 78 78 78 78 78 78 78 78 78 78 78 78 78 78 78 78 79 78 78 77 77
82 77 69 73 72 75 87 88 90 86 84 97 96 85 86 94 100 104 105 102 103 105 93 88 84 85 82 81 78 78 78 78 78 78 78 77 78 78 78 77 77 78 78 78 78 78 77 77 76
86 70 66 70 73 77 88 86 90 92 86 89 93 93 97 99 101 100 101 101 101 103 94 91 89 86 85 85 81 78 78 78 78 78 78 76 80 79 79 79 79 78 78 78 78 77 77 77 76
77 70 69 78 81 81 86 87 89 84 82 83 88 94 98 99 97 95 96 97 96 100 99 93 89 87 87 92 82 81 82 81 80 81 79 80 80 81 84 82 79 78 78 78 77 77 77 77 77
78 71 77 80 84 86 85 86 91 84 79 83 83 88 94 94 91 91 94 96 95 97 100 94 87 86 88 90 85 84 84 83 82 82 80 79 82 81 83 82 80 77 77 78 78 76 76 78 78
74 80 81 82 85 84 82 87 85 88 88 90 89 90 90 88 88 90 90 93 94 94 93 93 91 85 85 90 88 85 85 84 83 82 81 80 80 79 81 82 80 78 79 77 77 78 78 77 78
76 79 83 85 84 84 85 82 83 85 92 94 92 90 88 86 87 88 89 89 92 89 91 90 90 86 84 84 87 86 84 86 85 83 83 82 82 79 81 81 82 81 82 80 79 79 80 79 80
80 81 81 83 83 84 80 81 82 85 91 90 91 89 88 88 87 86 87 85 87 85 86 85 87 84 85 85 85 83 84 86 86 85 84 83 82 80 81 81 80 80 82 83 83 81 79 79 79
79 73 77 78 81 78 82 75 75 85 88 86 87 89 87 88 89 87 85 85 85 85 84 85 84 84 81 81 83 83 83 87 85 85 83 83 82 81 80 80 79 80 80 82 82 81 80 78 79
71 71 64 75 78 79 78 66 78 85 84 82 85 87 88 88 89 89 86 82 82 83 81 84 86 82 79 80 80 81 82 83 84 84 84 83 82 81 81 79 79 80 80 81 80 78 76 76 76
67 59 63 68 79 78 75 68 78 84 83 81 83 85 86 86 88 88 88 82 80 80 79 80 81 82 79 78 80 80 80 80 80 81 83 83 83 82 79 80 79 80 79 80 79 77 75 75 75
60 63 66 66 75 77 73 72 78 81 81 80 81 82 83 84 84 88 88 84 82 79 79 77 78 77 79 78 77 78 79 79 79 80 81 82 83 83 80 80 79 80 78 77 76 74 76 75 75
68 65 63 69 75 72 71 70 73 78 80 79 79 79 80 81 85 88 86 83 81 80 78 77 75 74 77 77 76 75 75 78 78 78 79 80 82 81 79 80 78 78 76 75 75 74 74 74 76
67 63 62 67 73 70 69 68 72 75 76 79 79 78 79 80 82 84 84 81 78 77 78 76 76 75 74 76 77 76 78 78 76 76 77 78 80 79 78 77 77 76 76 74 74 74 73 74 77
64 61 60 61 68 71 68 63 67 73 76 79 81 82 82 80 79 80 81 80 79 77 74 74 76 73 75 77 75 76 75 76 75 77 75 77 78 78 78 77 78 77 76 76 75 74 73 72 78
57 68 67 64 60 53 67 51 63 69 71 75 77 79 80 81 82 81 80 80 77 77 79 76 75 76 73 74 75 74 72 71 76 81 78 77 78 78 79 78 78 76 78 77 77 75 74 75 73
61 69 64 63 59 58 58 53 59 68 66 71 75 78 79 81 80 80 79 78 80 79 78 79 75 75 74 71 73 73 72 73 73 74 75 75 76 77 79 77 76 76 77 77 77 75 75 73 71
70 65 62 61 56 45 55 54 55 62 67 72 76 76 78 79 79 80 80 78 78 79 77 76 75 75 77 75 72 70 71 71 70 71 71 73 76 77 78 78 75 75 76 76 74 75 74 73 73
66 57 45 42 43 41 56 49 57 67 73 75 73 75 77 78 78 77 78 78 76 76 76 75 73 73 75 75 74 73 71 71 71 70 70 71 73 75 76 75 74 75 76 75 75 75 75 73 72
56 53 47 34 38 44 56 41 55 65 75 76 77 76 77 77 78 78 79 79 80 79 77 78 75 74 75 75 73 75 73 72 71 70 71 72 72 74 75 78 78 78 78 77 78 79 78 78 77
53 46 58 47 50 45 49 49 58 66 69 73 73 73 73 75 75 77 78 78 78 79 78 78 75 75 75 75 74 73 73 73 72 71 72 73 73 77 76 75 77 79 79 79 78 78 78 79 78
50 54 40 41 30 32 45 49 50 58 59 68 70 70 72 74 75 76 77 77 78 78 77 76 76 74 73 76 75 75 74 74 73 73 72 72 73 74 75 76 77 79 79 79 79 79 79 78 78
51 47 53 51 46 36 35 44 59 58 64 63 69 72 72 73 75 75 77 78 79 79 80 77 76 76 75 73 73 74 75 75 75 74 74 74 74 75 75 76 77 78 78 79 78 78 78 77 76
60 55 51 33 36 43 40 40 64 63 65 66 69 72 74 75 75 77 77 76 77 77 78 77 76 77 76 76 75 73 74 75 73 72 73 75 74 75 76 77 78 79 81 78 77 78 80 78 75

GFSSGP_sfc_temp_075.txt.gz
Temp
75 84 84 78 62 60 56 65 76 78 76 81 86 85 81 82 79 67 85 86 83 78 78 80 80 80 80 80 79 79 78 78 79 79 79 78 79 79 79 79 79 80 80 80 80 80 80 80 80
76 83 80 72 57 49 57 73 72 75 81 85 87 85 82 78 89 87 83 86 84 80 77 78 80 80 80 79 79 78 78 78 78 79 79 78 78 78 78 78 79 80 80 80 80 80 80 80 80
81 84 68 62 56 53 60 71 75 81 86 84 83 89 85 81 88 87 88 87 84 80 79 78 79 79 80 79 79 78 78 78 78 79 79 78 78 78 78 78 79 80 80 80 80 80 80 80 79
81 76 71 57 55 66 72 74 79 82 84 87 86 82 86 90 89 91 95 89 84 81 81 79 78 79 79 79 79 78 78 78 79 79 78 78 78 78 78 78 79 79 80 80 80 79 79 79 78
77 69 57 54 58 69 78 80 79 78 79 82 86 82 80 88 92 91 93 93 85 83 80 78 78 79 79 79 79 79 78 78 78 79 78 78 78 78 78 78 78 79 80 80 79 79 78 78 78
66 68 52 50 60 72 78 83 79 78 79 81 82 81 78 87 90 88 93 89 89 85 79 78 78 78 78 79 79 78 78 78 78 78 78 78 78 78 78 78 78 78 79 79 79 78 78 77 77
63 57 54 57 62 69 76 82 83 81 82 80 83 78 78 86 89 90 91 91 90 87 80 78 77 78 78 78 78 78 77 78 78 77 77 77 77 77 77 77 78 78 78 78 78 77 77 77 77
67 61 57 60 61 64 78 79 81 80 82 92 91 77 71 80 90 91 86 89 84 83 80 77 75 76 76 76 78 78 77 77 77 77 77 77 77 77 77 77 77 78 78 78 77 77 77 76 76
73 55 54 60 63 68 78 76 82 84 81 84 88 89 88 91 90 88 87 88 82 83 79 78 76 75 74 75 78 77 78 77 77 77 77 76 73 74 75 76 77 77 77 77 77 77 76 76 76
64 57 60 69 71 70 75 78 80 76 77 76 81 89 92 88 83 84 82 83 84 80 79 79 78 76 77 81 75 74 77 75 75 75 75 73 72 71 77 76 78 77 77 77 77 77 76 76 71
67 60 68 72 75 77 76 77 82 78 69 75 77 82 86 84 82 82 84 80 82 84 82 81 80 79 79 80 74 74 74 73 74 74 73 71 74 72 74 72 75 71 76 73 74 73 73 72 70
61 70 72 74 78 77 75 79 77 77 77 83 82 83 83 79 80 80 81 81 81 83 83 82 81 81 81 78 76 75 75 74 73 73 73 72 69 71 71 72 72 71 72 71 71 71 72 71 73
62 67 73 76 77 77 79 76 76 77 82 84 85 84 81 78 79 80 80 80 79 81 77 79 81 82 82 78 79 78 77 76 75 75 74 74 71 71 72 73 73 73 73 73 73 73 73 73 74
66 68 69 72 72 73 72 74 74 79 82 82 84 82 82 79 78 78 79 77 77 79 77 77 81 80 81 78 79 77 75 78 77 77 77 75 75 73 73 73 74 73 76 77 75 74 74 74 74
67 61 66 69 68 66 72 66 69 77 80 78 80 79 81 79 81 77 78 77 78 76 77 78 79 79 82 81 79 78 78 77 79 78 78 77 76 74 75 73 74 75 75 75 74 74 74 72 73
59 57 48 61 68 71 64 57 71 75 75 74 78 79 79 77 79 78 76 75 75 75 75 75 80 78 78 78 76 77 79 79 80 79 80 79 78 76 74 74 74 74 75 74 73 73 72 70 71
52 46 51 59 69 69 65 61 71 76 75 71 73 75 77 75 77 77 77 73 73 72 72 73 73 74 77 77 76 75 77 77 78 77 76 79 79 78 78 75 74 74 73 73 73 72 71 69 69
47 50 55 56 65 67 64 64 71 73 74 73 71 71 73 74 72 75 73 72 70 70 71 72 71 71 72 74 74 73 72 75 77 77 76 76 79 79 76 73 74 75 73 72 70 70 71 70 68
59 57 55 62 68 62 60 60 64 69 68 66 66 68 68 71 75 76 73 72 70 69 69 69 70 68 69 71 72 71 70 72 74 75 77 77 76 77 77 75 73 73 72 71 71 70 68 68 68
60 55 54 61 65 63 60 60 64 67 65 65 66 66 68 69 71 74 69 69 69 67 67 68 68 69 68 70 73 73 74 73 74 74 75 76 77 76 76 75 75 72 70 70 69 69 67 66 69
58 54 54 54 61 63 59 55 58 65 66 69 70 69 68 68 68 70 71 67 67 66 66 67 67 68 67 68 69 69 72 72 72 72 70 72 75 75 75 74 75 73 75 75 72 73 69 71 67
53 61 61 59 54 43 57 42 52 59 61 66 70 72 67 68 69 69 69 64 65 66 67 66 67 67 69 68 66 66 69 69 72 73 73 71 74 74 76 75 75 76 77 77 76 75 74 69 66
57 63 59 58 49 44 49 41 49 57 58 61 66 71 72 68 67 65 67 67 68 68 66 65 65 66 66 67 66 64 65 67 68 69 70 73 74 73 75 73 74 76 77 78 76 73 73 70 67
60 57 55 51 45 34 46 44 46 51 56 60 68 68 71 67 67 67 68 68 65 67 67 65 65 65 65 65 65 65 64 65 65 66 66 68 74 77 73 74 73 74 77 75 75 71 70 69 70
54 44 32 31 31 33 50 45 47 55 60 62 63 71 65 67 65 65 64 65 66 64 65 65 64 63 65 65 65 65 67 66 66 66 66 66 67 69 71 72 72 75 76 75 75 74 72 70 70
43 42 31 24 25 33 47 41 49 58 63 66 69 64 66 64 63 64 66 66 64 65 65 65 63 63 64 65 65 66 65 64 66 68 67 67 67 68 70 70 73 73 74 74 71 69 72 73 72
43 38 46 34 37 32 38 46 54 58 60 65 64 65 60 61 62 63 65 66 66 64 64 64 63 64 65 65 65 65 66 64 64 66 66 68 69 71 71 70 70 72 74 75 75 72 69 74 73
47 50 36 34 26 25 34 39 42 51 56 61 62 61 62 62 62 64 65 65 64 65 66 65 66 66 67 66 65 66 66 66 65 65 65 66 68 70 70 71 69 69 72 75 76 75 75 73 75
41 36 40 39 35 29 26 36 53 48 52 56 62 64 62 62 61 62 65 65 65 65 64 65 64 64 64 65 66 66 66 67 67 66 66 66 66 67 69 70 71 69 69 72 75 75 75 73 74
48 38 38 30 30 33 32 32 53 50 50 56 58 61 62 60 61 63 64 64 66 65 66 65 64 64 64 65 65 65 65 65 65 65 66 66 66 68 68 70 69 71 72 71 72 74 76 74 73